TimeEDT,TemperatureF,Dew PointF,Humidity,Sea Level PressureIn,VisibilityMPH,Wind Direction,Wind SpeedMPH,Gust SpeedMPH,PrecipitationIn,Events,Conditions,WindDirDegrees,DateUTC
12:15 AM,55.4,44.6,67,29.92,10.0,WSW,6.9,-,N/A,,Clear,240,2012-11-01 04:15:00
12:35 AM,55.4,44.6,67,29.92,10.0,WSW,5.8,-,N/A,,Unknown,240,2012-11-01 04:35:00
12:55 AM,55.4,44.6,67,29.92,10.0,WSW,6.9,-,N/A,,Unknown,250,2012-11-01 04:55:00
1:15 AM,55.4,44.6,67,29.92,10.0,WSW,5.8,-,N/A,,Unknown,250,2012-11-01 05:15:00
1:35 AM,55.4,44.6,67,29.92,10.0,WSW,6.9,-,N/A,,Unknown,250,2012-11-01 05:35:00
1:55 AM,55.4,46.4,72,29.92,10.0,WSW,6.9,-,N/A,,Unknown,250,2012-11-01 05:55:00
2:15 AM,55.4,46.4,72,29.92,10.0,West,5.8,-,N/A,,Clear,260,2012-11-01 06:15:00
2:35 AM,55.4,46.4,72,29.92,10.0,West,4.6,-,N/A,,Scattered Clouds,260,2012-11-01 06:35:00
2:55 AM,53.6,46.4,77,29.92,10.0,West,5.8,-,N/A,,Scattered Clouds,270,2012-11-01 06:55:00
3:15 AM,53.6,46.4,77,29.93,10.0,West,4.6,-,N/A,,Scattered Clouds,260,2012-11-01 07:15:00
3:35 AM,53.6,46.4,77,29.93,10.0,West,4.6,-,N/A,,Scattered Clouds,260,2012-11-01 07:35:00
3:55 AM,51.8,46.4,82,29.93,10.0,West,4.6,-,N/A,,Clear,260,2012-11-01 07:55:00
4:15 AM,51.8,46.4,82,29.93,10.0,West,4.6,-,N/A,,Clear,260,2012-11-01 08:15:00
4:35 AM,51.8,46.4,82,29.93,10.0,West,4.6,-,N/A,,Scattered Clouds,270,2012-11-01 08:35:00
4:55 AM,53.6,46.4,77,29.93,10.0,West,5.8,-,N/A,,Scattered Clouds,270,2012-11-01 08:55:00
5:15 AM,53.6,46.4,77,29.93,10.0,West,5.8,-,N/A,,Clear,270,2012-11-01 09:15:00
5:35 AM,53.6,46.4,77,29.94,10.0,West,5.8,-,N/A,,Clear,280,2012-11-01 09:35:00
5:55 AM,53.6,46.4,77,29.94,10.0,West,4.6,-,N/A,,Clear,270,2012-11-01 09:55:00
6:15 AM,51.8,46.4,82,29.95,10.0,West,4.6,-,N/A,,Clear,260,2012-11-01 10:15:00
6:35 AM,50.0,46.4,87,29.95,10.0,Calm,Calm,-,N/A,,Clear,0,2012-11-01 10:35:00
6:55 AM,48.2,46.4,93,29.95,10.0,Calm,Calm,-,N/A,,Unknown,0,2012-11-01 10:55:00
7:15 AM,48.2,46.4,93,29.96,10.0,Calm,Calm,-,N/A,,Unknown,0,2012-11-01 11:15:00
7:35 AM,46.4,44.6,93,29.96,10.0,Calm,Calm,-,N/A,,Unknown,0,2012-11-01 11:35:00
7:55 AM,48.2,46.4,93,29.97,10.0,WNW,5.8,-,N/A,,Unknown,290,2012-11-01 11:55:00
8:15 AM,50.0,46.4,87,29.97,10.0,WNW,5.8,-,N/A,,Unknown,300,2012-11-01 12:15:00
8:35 AM,51.8,46.4,82,29.98,10.0,WNW,6.9,-,N/A,,Unknown,300,2012-11-01 12:35:00
8:55 AM,53.6,46.4,77,29.98,10.0,NW,8.1,-,N/A,,Unknown,310,2012-11-01 12:55:00
9:15 AM,55.4,44.6,67,29.99,10.0,NW,8.1,-,N/A,,Clear,310,2012-11-01 13:15:00
9:35 AM,57.2,44.6,63,29.99,10.0,NW,9.2,-,N/A,,Clear,320,2012-11-01 13:35:00
9:55 AM,57.2,42.8,59,29.99,10.0,NW,10.4,-,N/A,,Clear,320,2012-11-01 13:55:00
10:15 AM,59.0,41.0,51,30.00,10.0,NNW,8.1,-,N/A,,Clear,330,2012-11-01 14:15:00
10:35 AM,60.8,37.4,42,30.00,10.0,WNW,9.2,-,N/A,,Clear,300,2012-11-01 14:35:00
10:55 AM,62.6,35.6,37,30.00,10.0,WNW,8.1,-,N/A,,Clear,290,2012-11-01 14:55:00
11:15 AM,62.6,35.6,37,30.00,10.0,NW,9.2,-,N/A,,Clear,310,2012-11-01 15:15:00
11:35 AM,64.4,35.6,34,30.00,10.0,NW,11.5,-,N/A,,Clear,310,2012-11-01 15:35:00
11:55 AM,64.4,33.8,32,30.00,10.0,NW,12.7,17.3,N/A,,Clear,310,2012-11-01 15:55:00
12:15 PM,66.2,35.6,32,29.99,10.0,NNW,9.2,-,N/A,,Clear,340,2012-11-01 16:15:00
12:35 PM,66.2,33.8,30,29.98,10.0,WNW,12.7,16.1,N/A,,Clear,290,2012-11-01 16:35:00
12:55 PM,66.2,33.8,30,29.97,10.0,WNW,9.2,-,N/A,,Clear,290,2012-11-01 16:55:00
1:15 PM,69.8,33.8,27,29.96,10.0,NW,9.2,16.1,N/A,,Clear,310,2012-11-01 17:15:00
1:35 PM,69.8,33.8,27,29.95,10.0,West,12.7,16.1,N/A,,Clear,280,2012-11-01 17:35:00
1:55 PM,69.8,32.0,25,29.94,10.0,WNW,11.5,17.3,N/A,,Clear,290,2012-11-01 17:55:00
2:15 PM,71.6,33.8,25,29.93,10.0,WNW,13.8,-,N/A,,Clear,300,2012-11-01 18:15:00
2:35 PM,71.6,33.8,25,29.92,10.0,WNW,15.0,21.9,N/A,,Clear,290,2012-11-01 18:35:00
2:55 PM,71.6,33.8,25,29.91,10.0,West,13.8,18.4,N/A,,Clear,280,2012-11-01 18:55:00
3:15 PM,71.6,33.8,25,29.91,10.0,West,12.7,18.4,N/A,,Clear,280,2012-11-01 19:15:00
3:35 PM,71.6,32.0,23,29.91,10.0,WNW,12.7,21.9,N/A,,Clear,290,2012-11-01 19:35:00
3:55 PM,71.6,32.0,23,29.91,10.0,WNW,12.7,18.4,N/A,,Clear,290,2012-11-01 19:55:00
4:15 PM,71.6,33.8,25,29.90,10.0,WNW,15.0,19.6,N/A,,Clear,290,2012-11-01 20:15:00
4:35 PM,71.6,33.8,25,29.90,10.0,WNW,12.7,17.3,N/A,,Clear,290,2012-11-01 20:35:00
4:55 PM,69.8,33.8,27,29.90,10.0,WNW,13.8,17.3,N/A,,Clear,290,2012-11-01 20:55:00
5:15 PM,69.8,33.8,27,29.90,10.0,West,13.8,17.3,N/A,,Clear,280,2012-11-01 21:15:00
5:35 PM,69.8,33.8,27,29.91,10.0,West,8.1,17.3,N/A,,Clear,280,2012-11-01 21:35:00
5:55 PM,68.0,33.8,28,29.91,10.0,West,8.1,-,N/A,,Clear,280,2012-11-01 21:55:00
6:15 PM,66.2,33.8,30,29.92,10.0,West,8.1,-,N/A,,Clear,280,2012-11-01 22:15:00
6:35 PM,64.4,35.6,34,29.93,10.0,West,4.6,-,N/A,,Clear,260,2012-11-01 22:35:00
6:55 PM,62.6,35.6,37,29.93,10.0,Calm,Calm,-,N/A,,Clear,0,2012-11-01 22:55:00
7:15 PM,57.2,35.6,44,29.94,10.0,WSW,3.5,-,N/A,,Clear,250,2012-11-01 23:15:00
7:35 PM,53.6,37.4,54,29.94,10.0,Calm,Calm,-,N/A,,Clear,0,2012-11-01 23:35:00
7:55 PM,53.6,37.4,54,29.95,10.0,WSW,3.5,-,N/A,,Clear,250,2012-11-01 23:55:00
8:15 PM,51.8,37.4,58,29.95,10.0,WSW,3.5,-,N/A,,Clear,250,2012-11-02 00:15:00
8:35 PM,51.8,37.4,58,29.96,10.0,WSW,3.5,-,N/A,,Clear,250,2012-11-02 00:35:00
8:55 PM,48.2,37.4,66,29.96,10.0,WSW,3.5,-,N/A,,Clear,250,2012-11-02 00:55:00
9:15 PM,53.6,37.4,54,29.97,10.0,West,3.5,-,N/A,,Unknown,270,2012-11-02 01:15:00
9:35 PM,51.8,37.4,58,29.98,10.0,West,3.5,-,N/A,,Unknown,270,2012-11-02 01:35:00
9:55 PM,50.0,37.4,62,29.98,10.0,Calm,Calm,-,N/A,,Unknown,0,2012-11-02 01:55:00
10:15 PM,46.4,39.2,76,29.99,10.0,Calm,Calm,-,N/A,,Unknown,0,2012-11-02 02:15:00
10:35 PM,48.2,39.2,71,29.99,10.0,Calm,Calm,-,N/A,,Unknown,0,2012-11-02 02:35:00
10:55 PM,48.2,37.4,66,30.00,10.0,Calm,Calm,-,N/A,,Unknown,0,2012-11-02 02:55:00
11:15 PM,46.4,37.4,71,30.00,10.0,Calm,Calm,-,N/A,,Unknown,0,2012-11-02 03:15:00
11:35 PM,46.4,39.2,76,29.99,10.0,Calm,Calm,-,N/A,,Unknown,0,2012-11-02 03:35:00
11:55 PM,44.6,37.4,76,30.00,10.0,Calm,Calm,-,N/A,,Unknown,0,2012-11-02 03:55:00